Location: Lone Tree Crossing
(44.4480°N, 108.7040°W)
Time: 02:54:26
(UTC+00:00)

ISS - Visible Passes

Search period start: 21 January 2022 00:00
Search period end: 31 January 2022 00:00
Orbit: 413 x 422 km, 51.6° (Epoch: 20 January)

Date Brightness Start Highest point End Pass type
(mag) Time Alt. Az. Time Alt. Az. Time Alt. Az.
21 Jan -3.2 00:57:51 10° SW 01:01:03 45° SE 01:03:34 15° ENE visible
21 Jan -1.5 02:34:46 10° W 02:36:30 24° WNW 02:36:30 24° WNW visible
22 Jan -3.2 01:46:34 10° W 01:49:49 49° NNW 01:50:36 39° NNE visible
23 Jan -3.7 00:58:26 10° WSW 01:01:46 73° NNW 01:04:37 13° NE visible
23 Jan -1.3 02:36:05 10° WNW 02:37:34 19° NW 02:37:34 19° NW visible
24 Jan -2.4 01:47:47 10° WNW 01:50:46 29° NNW 01:51:32 26° NNE visible
25 Jan -2.7 00:59:29 10° W 01:02:36 37° NNW 01:05:29 12° NE visible
25 Jan -1.2 02:37:15 10° NW 02:38:25 17° NW 02:38:25 17° NW visible
26 Jan -2.2 01:49:00 10° WNW 01:51:46 23° N 01:52:20 22° NNE visible
27 Jan -2.2 01:00:40 10° WNW 01:03:31 25° N 01:06:14 11° NE visible
27 Jan -1.2 02:38:06 10° NW 02:39:10 16° NW 02:39:10 16° NW visible
28 Jan -2.2 01:49:57 10° NW 01:52:44 23° N 01:53:04 23° NNE visible
29 Jan -2.1 01:01:43 10° NW 01:04:27 23° N 01:06:59 11° NE visible
29 Jan -1.4 02:38:40 10° NW 02:39:55 19° NW 02:39:55 19° NW visible
30 Jan -2.7 01:50:36 10° NW 01:53:36 30° NNE 01:53:52 29° NNE visible
